Preview of NWS' New Version of Forecast
This preview is not operational and should not be used for support decisions.

Regional Weather Roundup (RWR)

Issued by Guam, GU (GUM)

                            
000
ASGM40 PGUM 152110
RWRGUM
WEATHER ROUNDUP FOR THE MARIANAS
NATIONAL WEATHER SERVICE TIYAN GU
700 AM CHST TUE OCT 16 2018

GUZ001>004-152200-
MARIANA ISLANDS-
  
CITY           SKY/WX    TMP DP  RH WIND       PRES   REMARKS
GUAM AIRPORT   CLOUDY    81  81 100 CALM      29.87R HX  91           
ANDERSEN AFB   PTSUNNY   77  75  94 S9        29.88R                  
ROTA AIRPORT   PTSUNNY   79  75  89 SE6       29.86R                  
TINIAN AP      PTSUNNY   75  75 100 SE10      29.87R                  
SAIPAN AP      MOSUNNY   79  77  94 SE9       29.88R                  

$$